Regional Weather Roundup
Issued by NWS Mobile, AL

Home | Current Version | Previous Version | Text Only | Print | Product List | Glossary On
Versions: 1 2 3 4 5 6 7 8 9 10 11 12 13 14 15 16 17 18 19 20 21 22 23 24 25 26 27
000
ASUS44 KMOB 272012
RWRMOB
REGIONAL WEATHER ROUNDUP
NATIONAL WEATHER SERVICE MOBILE AL
200 PM CST MON FEB 27 2017

NOTE: "FAIR" INDICATES FEW OR NO CLOUDS BELOW 12,000 FEET WITH NO
      SIGNIFICANT WEATHER AND/OR OBSTRUCTIONS TO VISIBILITY.

  * THESE STATIONS ARE PART OF THE UNIVERSITY OF SOUTH ALABAMA
    MESONET AND ARE NOT UNDER NWS OR FAA QUALITY CONTROL.

ALZ061>064-272100-
COASTAL ALABAMA

CITY           SKY/WX    TMP DP  RH WIND       PRES   REMARKS
MOBILE REG APT PTSUNNY   76  59  55 S15G22    30.13F
BROOKLEY FIELD PTSUNNY   73  67  81 SE8       30.14F
USA CAMPUS*    NOT AVBL
DOG RIVER*       N/A     73  66  78 S14       30.91F


CITY           SKY/WX    TMP DP  RH WIND       PRES   REMARKS
GULF SHORES    PTSUNNY   74  70  87 S14       30.14S

$$

ALZ051>060-272100-
INTERIOR SOUTHWEST AND SOUTH CENTRAL ALABAMA

CITY           SKY/WX    TMP DP  RH WIND       PRES   REMARKS
GREENVILLE     LGT RAIN  50  47  89 E9        30.21F FOG
EVERGREEN      LGT RAIN  52  50  93 NE9       30.21F FOG
ATMORE*          N/A     55  54  94 NE21      30.18R
ANDALUSIA/OPP  CLOUDY    58  49  72 N14G22    30.20R
ANDALUSIA*       N/A     54  48  82 NE10      30.19
FLORALA APT    LGT RAIN  71  62  73 S6        30.17F
FLORALA*         N/A     72  63  73 S5        30.91S

$$

FLZ001>006-272100-
WESTERN FLORIDA PANHANDLE

CITY           SKY/WX    TMP DP  RH WIND       PRES   REMARKS
PENSACOLA      CLOUDY    74  66  76 S12       30.14F
NAS PENSACOLA  CLOUDY    73  67  81 S12       30.13F
MILTON         LGT RAIN  71  65  81 S12       30.15F
WHTNG S FIELD  LGT RAIN  73  67  81 S12G22    30.15F


CITY           SKY/WX    TMP DP  RH WIND       PRES   REMARKS
JAY*             N/A     70  57  64 NE18      30.16R
DUKE FIELD     CLOUDY    73  64  73 S15       30.16R
CRESTVIEW      CLOUDY    73  63  70 S15       30.17F
VALPARAISO     CLOUDY    71  65  80 SE10      30.15F
DESTIN         CLOUDY    74  70  87 SE10      30.15F

$$

MSZ076-079-272100-
INTERIOR SOUTHEAST MISSISSIPPI

CITY           SKY/WX    TMP DP  RH WIND       PRES   REMARKS
LEAKESVILLE*   NOT AVBL
AGRICOLA*        N/A     73  63  68 S2        30.11S

$$

MARINE OBSERVATIONS

STATION/POSITION TIME  TEMP    WIND        PRES    WAVE
                       AIR SEA DIR/SP/G            HT/PER
                 (UTC) (F)     (DEG/KT/KT) (MB)    (FT/S)
PASCAGOULA       1948   71     170/  9/ 11 1019.9F
PETIT BOIS ISLND 1948   71     160/  8/ 10 1020.6F
GRAND BAY        1845   69     150/  6     1021.0F
E DAUPHIN ISLAND 1900   69     160/  9/ 10 1020.2F
MIDDLE BAY LIGHT 1930   69     150/ 10     1020.3F
USCG MOBILE BAY  1948   69 64  150/  5/  9 1020.8F
STATE DOCKS      1948   71 64              1020.2F
MEAHER PARK      1930   70     180/ 10     1020.6F
WEEKS BAY        1845   76                   N/A
FORT MORGAN      1948   71     170/ 12/ 13   N/A
12 S ORANGE BCH  1950   70 69  170/  8/ 10 1020.3F   4/ 6
PENSACOLA BAY    1948   73 65  180/ 10/ 12 1020.9F
67 S FORT MORGAN 1930   72     170/ 16     1020.3F

$$

SELECTED LOCATIONS ACROSS THE REGION

CITY           SKY/WX    TMP DP  RH WIND       PRES   REMARKS
NEW ORLEANS    PTSUNNY   77  67  71 S13G24    30.08F
GULFPORT       MOSUNNY   75  65  70 S14G20    30.11F
PASCAGOULA AP  CLOUDY    77  61  57 S16G22    30.12F
PASCAGOULA*    NOT AVBL
HATTIESBURG    LGT RAIN  60  58  92 NE7       30.16F
LAUREL         CLOUDY    61  55  82 E7        30.17S
MERIDIAN       CLOUDY    64  60  87 VRB3      30.14F
JACKSON        CLOUDY    63  56  78 SE7       30.13S
MONTGOMERY     RAIN      52  48  86 E10       30.24F FOG
TROY           LGT RAIN  53  46  77 N12G24    30.24F
ASHFORD*         N/A     54  48  82 NE10      30.19
DOTHAN         CLOUDY    75  62  64 S10G21    30.21F
PANAMA CITY    MOSUNNY   74  65  73 SE17G28   30.16F

$$





USA.gov is the U.S. government's official web portal to all federal, state and local government web resources and services.